Airfield :
LOGIN :

Register | Disclaimer

   EN    FR    IT 

 










Legend :    VFR   Marginal VFR   IFR   Intensive IFR   Very Intensive IFR
Visi :
Ceiling :
>= 8 km
>= 3000ft
5 to 8 km
1000 to 3000 ft
1500m to 5 km
500 to 1000 ft
800 to 1500m
200 to 500 ft
< 800m
< 200 ft
Symbols :   Thunderstorms  Fog  Heavy snow  Heavy precipitations  Wind > 20 kt
SIGMETs :     Misc.  Thunderstorms  Icing  Turbulence  Mountain Waves  Volcanic Ashes






- Airport Elevation : 157 ft


LESB - Son Bonet

CURRENT METAR :
  • 191100Z AUTO 22013KT 9999 SCT024/// BKN029/// OVC032/// 16/10 Q1019

EXPIRED METARs :
  • 191030Z AUTO 22012KT 9999 FEW023/// SCT028/// 16/10 Q1020
  • 191000Z AUTO 21013KT 180V240 9999 FEW023/// 17/10 Q1020
  • 190930Z AUTO 22014KT CAVOK 17/10 Q1020
  • 190900Z AUTO 21013KT 9999 FEW024/// 16/10 Q1020
  • 190830Z AUTO 22011KT 9999 FEW025/// 16/10 Q1020

TAF N/A



MET'MAP, your aeronautical weather chart ! - Copyright ORBIFLY December 2007 - Disclaimer

ORBIFLY MET'MAP TEAM :

Programming & Development : Alexandra Zaïnal
Concept & original design : Baudouin d'Aumeries
Assistance for programming : Marc-Olivier Méhu
Technical & hardware support : Manuel Goepfert

Contact : metmap@orbifly.com




SOURCES & CREDITS :

   NOAA